This is the latest recevied weather packets stored in our database for station/object N6GPM. If no packets are shown the sender has not sent any weather packets the latest 10 day(s).
| Time | Temp. | Humidity | Pressure | Rain* | Wind** | Luminosity | Snow |
|---|---|---|---|---|---|---|---|
| 1777780050 | 18.89° C | 69% | 1015.2 hPa | 0 mm | - | 0 W/m² | - |
| 1777779746 | 19.44° C | 69% | 1015.2 hPa | 0 mm | - | 0 W/m² | - |
| 1777779444 | 19.44° C | 68% | 1015 hPa | 0 mm | - | 0 W/m² | - |
| 1777779136 | 19.44° C | 68% | 1015.2 hPa | 0 mm | - | 0 W/m² | - |
| 1777778834 | 20° C | 68% | 1014.7 hPa | 0 mm | - | 0 W/m² | - |
| 1777778533 | 20° C | 67% | 1015 hPa | 0 mm | - | 0 W/m² | - |
| 1777778229 | 20° C | 66% | 1014.9 hPa | 0 mm | - | 0 W/m² | - |
| 1777777928 | 20.56° C | 66% | 1015 hPa | 0 mm | - | 0 W/m² | - |
| 1777777623 | 20.56° C | 65% | 1014.9 hPa | 0 mm | - | 0 W/m² | - |
| 1777777320 | 20.56° C | 64% | 1014.6 hPa | 0 mm | - | 0 W/m² | - |
| 1777777017 | 20.56° C | 64% | 1014.6 hPa | 0 mm | - | 0 W/m² | - |
| 1777776715 | 20.56° C | 63% | 1014.4 hPa | 0 mm | - | 0 W/m² | - |
| 1777776410 | 21.11° C | 63% | 1014.5 hPa | 0 mm | - | 0 W/m² | - |
| 1777776108 | 21.11° C | 63% | 1014.4 hPa | 0 mm | - | 0 W/m² | - |
| 1777775805 | 21.11° C | 62% | 1014.3 hPa | 0 mm | - | 1 W/m² | - |
| 1777775502 | 21.67° C | 62% | 1014.1 hPa | 0 mm | - | 3 W/m² | - |
| 1777775198 | 21.67° C | 62% | 1014.4 hPa | 0 mm | - | 7 W/m² | - |
| 1777774898 | 22.22° C | 60% | 1014.2 hPa | 0 mm | - | 10 W/m² | - |
| 1777774595 | 22.22° C | 60% | 1014 hPa | 0 mm | - | 15 W/m² | - |
| 1777774291 | 22.78° C | 60% | 1014.3 hPa | 0 mm | - | 19 W/m² | - |
| 1777773988 | 22.78° C | 58% | 1014.2 hPa | 0 mm | - | 24 W/m² | - |
| 1777773686 | 22.78° C | 58% | 1014 hPa | 0 mm | - | 27 W/m² | - |
| 1777773383 | 22.78° C | 57% | 1014.1 hPa | 0 mm | - | 31 W/m² | - |
| 1777772775 | 23.33° C | 57% | 1014 hPa | 0 mm | - | 41 W/m² | - |
| 1777771869 | 23.89° C | 56% | 1014.2 hPa | 0 mm | - | 70 W/m² | - |
* Rain latest hour (hover to see other rain measurements)
** Current wind speed in m/s (hover to see current wind gust speed)